Location: Igon
(43.1667°N, 0.2333°W)
Time: 04:18:43
(UTC+00:00)

LKW-4 - Visible Passes

Search period start: 21 June 2021 00:00
Search period end: 01 July 2021 00:00
Orbit: 491 x 500 km, 97.4° (Epoch: 20 June)

Date Brightness Start Highest point End Pass type
(mag) Time Alt. Az. Time Alt. Az. Time Alt. Az.
21 Jun ? 00:36:01 47° ENE 00:36:05 47° ENE 00:39:36 10° N visible
21 Jun ? 02:10:37 11° W 02:10:37 11° W 02:11:14 10° WNW visible
22 Jun ? 00:14:51 26° E 00:15:15 26° ENE 00:18:20 10° NNE visible
22 Jun ? 01:49:27 19° W 01:49:27 19° W 01:51:38 10° NW visible
22 Jun ? 23:53:41 15° E 23:54:27 16° ENE 23:56:42 10° NNE visible
23 Jun ? 01:28:17 34° W 01:28:17 34° W 01:31:12 10° NNW visible
24 Jun ? 01:07:07 63° WNW 01:07:07 63° WNW 01:10:27 10° NNW visible
25 Jun ? 00:45:57 63° ENE 00:45:57 63° ENE 00:49:29 10° N visible
26 Jun ? 00:24:47 34° E 00:24:59 34° ENE 00:28:18 10° N visible
26 Jun ? 01:59:22 15° W 01:59:22 15° W 02:01:00 10° NW visible
27 Jun ? 00:03:37 19° E 00:04:10 20° ENE 00:06:51 10° NNE visible
27 Jun ? 01:38:13 26° W 01:38:13 26° W 01:40:48 10° NW visible
27 Jun ? 23:42:27 11° E 23:43:24 12° ENE 23:44:48 10° NE visible
28 Jun ? 01:17:03 46° WNW 01:17:03 46° WNW 01:20:10 10° NNW visible
29 Jun ? 00:55:53 76° N 00:55:53 76° N 00:59:17 10° N visible
30 Jun ? 00:34:42 45° ENE 00:34:42 45° ENE 00:38:12 10° N visible
30 Jun ? 02:09:18 11° W 02:09:18 11° W 02:10:02 10° WNW visible
